Regional Weather Roundup
Issued by NWS

Home | Current Version | Previous Version | Text Only | Print | Product List | Glossary On
Versions: 1 2 3 4 5 6 7 8 9 10 11 12 13 14 15 16 17 18 19 20 21 22 23 24 25 26 27 28 29 30 31 32 33 34 35 36 37 38 39 40 41 42 43 44 45 46 47 48 49 50
000
ASUS43 KMKX 270200
RWRWI

WISCONSIN REGIONAL WEATHER ROUNDUP
NATIONAL WEATHER SERVICE MILWAUKEE/SULLIVAN WI
900 PM CDT WED JUL 26 2017

NOTE: "FAIR" INDICATES FEW OR NO CLOUDS BELOW 12,000 FEET WITH NO
SIGNIFICANT WEATHER AND/OR OBSTRUCTIONS TO VISIBILITY.

WIZ001-002-006>008-014>016-023>028-270300-
NORTHWEST WISCONSIN

CITY           SKY/WX    TMP DP  RH WIND       PRES   REMARKS
SUPERIOR ARPT  NOT AVBL
ASHLAND        CLEAR     66  63  90 W3        29.98R
HAYWARD        CLEAR     69  64  84 CALM      30.00R
SIREN          CLEAR     73  64  72 CALM      30.00S
CUMBERLAND     CLEAR     70  61  73 CALM      30.00R
RICE LAKE      CLEAR     73  62  67 CALM      30.01R
CHETEK         CLEAR     72  64  75 CALM      29.99R
LADYSMITH      CLEAR     72  63  73 NW3       30.01R
EAU CLAIRE     NOT AVBL
MENOMONIE      CLEAR     74  62  65 NW5       29.99R
NEW RICHMOND   CLEAR     72  60  67 NW5       30.00R
OSCEOLA        CLEAR     75  61  61 CALM      30.02R
$$

WIZ003>005-009-010-017-018-270300-
NORTH CENTRAL WISCONSIN

CITY           SKY/WX    TMP DP  RH WIND       PRES   REMARKS
MANITOWISH WTR CLEAR     68  59  73 CALM      30.00S
ARBOR VITAE    CLEAR     72  61  69 CALM      30.00S
WOODRUFF       CLEAR     72  61  69 CALM      30.00S
RHINELANDER    CLEAR     69  58  67 CALM      30.01R
EAGLE RIVER    CLEAR     65  53  65 CALM      30.00S
LAND O LAKES   CLEAR     62  57  81 CALM      30.01S
PHILLIPS       CLEAR     67  62  81 CALM      30.00R
TOMAHAWK         N/A     70  60  70 CALM      30.00R
MEDFORD        CLEAR     68  64  85 CALM      29.99R
MERRILL        PTCLDY    72  70  94 CALM      29.98R
$$

WIZ029-030-035-036-043>047-270300-
CENTRAL WISCONSIN

CITY           SKY/WX    TMP DP  RH WIND       PRES   REMARKS
WAUSAU         CLEAR     70  68  93 CALM      29.97R
MOSINEE        PTCLDY    70  68  94 SW3       29.99S
MARSHFIELD     CLEAR     67  65  93 W3        29.99R
STEVENS POINT  CLOUDY    73  68  87 NW3       29.98S
WAUPACA        CLOUDY    76  71  83 CALM      29.96S
WAUTOMA        CLOUDY    73  70  90 CALM      29.98R
WISC RAPIDS    CLOUDY    74  70  87 W3        29.99R
CAMP DOUGLAS   NOT AVBL
$$

WIZ011>013-019>022-031-037>040-048>050-270300-
NORTHEAST WISCONSIN

CITY           SKY/WX    TMP DP  RH WIND       PRES   REMARKS
ANTIGO         MOCLDY    69  68  96 W6        29.98S
SHAWANO        CLOUDY    75  70  82 CALM      29.96R
OCONTO         CLOUDY    71  69  93 CALM      29.93S
STURGEON BAY     N/A     72  71  97 S6        29.95R
GREEN BAY      PTCLDY    74  74 100 CALM      29.95R
MANITOWOC      CLOUDY    72  70  94 SW5       29.97R
APPLETON       CLOUDY    73  72  94 W3        29.96R
CLINTONVILLE   CLOUDY   N/A N/A N/A SW5       29.96R
OSHKOSH        CLOUDY    72  70  93 S3        29.97R
$$

WIZ032>034-041-042-053>061-270300-
SOUTHWEST WISCONSIN

CITY           SKY/WX    TMP DP  RH WIND       PRES   REMARKS
LA CROSSE      PTCLDY    78  72  81 NW3       29.97R HX  80
SPARTA         PTCLDY    73  70  91 CALM      29.98R
VIROQUA        MOCLDY    74  72  95 CALM      30.00R
BOSCOBEL       CLOUDY    75  72  90 CALM      29.97R
PRAIRIE DU CHI CLOUDY    76  69  77 CALM      29.96S
PLATTEVILLE    CLOUDY    76  75  97 S7        29.98S
$$

WIZ056-057-062-063-064-067-068-270300-
SOUTH CENTRAL WISCONSIN

CITY           SKY/WX    TMP DP  RH WIND       PRES   REMARKS
REEDSBURG      CLOUDY    73  73  98 CALM      29.97S
BARABOO/DELLS  CLOUDY    73  71  91 NW3       29.98R
LONE ROCK      CLOUDY    74  74 100 NW3       29.97R
MINERAL POINT  CLOUDY    73  73 100 CALM      29.98S
MADISON        CLOUDY    73  70  90 S3        29.96S
MIDDLETON      CLOUDY    73  73  99 CALM      29.97S
WATERTOWN      CLOUDY    72  72 100 SE7       29.96S
MONROE         LGT RAIN  72  72 100 E8        29.97S
JANESVILLE     HVY RAIN  79  75  89 E6        29.97R HX  82
$$

WIZ051-052-058>065-066-070>072-270300-
SOUTHEAST WISCONSIN

CITY           SKY/WX    TMP DP  RH WIND       PRES   REMARKS
MILWAUKEE      LGT RAIN  74  71  91 SE5       29.97S
WAUKESHA       PTCLDY    70  70 100 NE5       29.99R
MILWAUKEE/TIMM PTCLDY    72  68  88 CALM      29.98F
RACINE         CLOUDY    74  69  85 E6        29.99S
KENOSHA        CLOUDY    75  70  84 SE5       29.97S
FOND DU LAC    CLOUDY    72  69  90 CALM      29.97R
SHEBOYGAN      CLOUDY    71  71 100 CALM      29.97F FOG
WEST BEND      CLOUDY    70  70 100 CALM      29.97S FOG
JUNEAU         CLOUDY    71  70  96 CALM      29.97S
$$

LSZ147-162-270300-
LAKE SUPERIOR

STATION/POSITION TIME  TEMP    WIND        PRES    WAVE
                       AIR SEA DIR/SP/G            HT/PER
                 (UTC) (F)     (DEG/KT/KT) (MB)    (FT/S)
W MID LAKE BUOY  0050   58 53  280/  8/ 10 1013.9R   1
DEVILS ISLAND    0100   69     250/ 10/ 11 1014.0R
SAXON HARBOR     0140   70     200/  2/  3 1013.9S
$$

LMZ867-665-643>646-270300-
LAKE MICHIGAN

STATION/POSITION TIME  TEMP    WIND        PRES    WAVE
                       AIR SEA DIR/SP/G            HT/PER
                 (UTC) (F)     (DEG/KT/KT) (MB)    (FT/S)
CHAMBERS ISLAND  0140   73     210/  6/ 10 1012.5S
S GREEN BAY BUOY 0130   73 71  220/  6/  8 1013.4S
N MID LAKE BUOY  2350   67 66  200/ 14/ 16 1013.3    4/ 6
NORTHPORT PIER   0140   73     180/  4/  6 1013.2R
KEWAUNEE LAKESHO 0130   69     180/  8/ 10 1013.4R
SHEBOYGAN LAKESH 0100   71     230/  9/ 10 1014.3R
PORT WASHINGTON  0130   71     190/  2/  6 1015.6F
ATWATER BUOY     0009   70 69  140/  6/ 10 1015.1R
MILWAUKEE LAKESH 0130   71     120/  6/  7   N/A
S MID LAKE BUOY  0050   73 71  120/  8/  8 1015.0F   1
KENOSHA   LAKESH 0100   73     170/  5/  6 1014.2
$$

TC  - TEMPERATURE IN CELSIUS
VSB - VISIBILITY IN STATUTE MILES
WCI - WIND CHILL INDEX
HX  - HEAT INDEX





USA.gov is the U.S. government's official web portal to all federal, state and local government web resources and services.